{"data":{"norad_id":61928,"epoch":"2026-05-24T21:00:30.634848Z","epoch_age_seconds":83057,"freshness":"FRESH","line1":"1 61928U 24207S   26144.87535457  .00011580  00000+0  42962-3 0  9992","line2":"2 61928  42.9948 211.4834 0001442 273.1883  86.8804 15.27582879 86372","mean_motion":15.27582879,"eccentricity":0.0001442,"inclination_deg":42.9948,"raan_deg":211.4834,"arg_perigee_deg":273.1883,"mean_anomaly_deg":86.8804,"bstar":0.00042962,"rev_number":8637,"period_min":94.266571051298,"perigee_km":482.05109349954,"apogee_km":484.02985708341,"semimajor_km":6861.1774752915,"source":"CELESTRAK","updated_at":"2026-05-25T13:38:19.484109Z"}}